Home > Weather > Izmir > Past weeks

Flag for Turkey Weather for the Past 2 Weeks in Izmir, Turkey

Now
61 °F

Broken clouds.


Feels Like: 61 °F
Forecast: 55 / 65 °F
Wind: 12 mph from South

Location: Izmir / Adnan Menderes

Current Time: Feb 12, 2016 at 12:07:58 PM

Latest Report: Feb 12, 2016 at 11:20 AM


Visibility: N/A

Pressure: 30.04 "Hg

Humidity: 77%

Dew point: 54 °F

Location of IzmirLocation

Historic Weather in Izmir — Graph

°F

Izmir Temperature Yesterday

Maximum temperature yesterday: 63 °F (at 12:20 PM)
Minimum temperature yesterday: 52 °F (at 12:20 AM)
Average temperature yesterday: 57 °F

High & Low Weather Summary for the Past Weeks

 TemperatureHumidityPressure
High68 °F (Feb 3, 2:50 PM)100% (Jan 31, 6:50 AM)30.42 "Hg (Jan 31, 6:50 AM)
Low27 °F (Feb 8, 6:50 AM)35% (Jan 28, 2:20 PM)29.62 "Hg (Feb 5, 2:50 PM)
Average48 °F73%30.16 "Hg
* Reported Jan 28 11:20 AM — Feb 12 11:02 AM, Izmir, Weather by CustomWeather, © 2016

Note: Actual official high and low records may vary slightly from our data, if they occured in-between our weather recording intervals... More about our weather records

Advertising

Izmir Weather History for the Previous 24 Hours

 ConditionsComfort  
Time TempWeatherWind HumidityBarometerVisibility
11:02 AM
Fri, Feb 12
59 °FBroken clouds.12 mph82%30.04 "HgN/A
10:50 AM59 °FSprinkles. Broken clouds.13 mph82%30.04 "HgN/A
10:20 AM57 °FSprinkles. Broken clouds.12 mph88%30.01 "HgN/A
9:59 AM57 °FSprinkles. Broken clouds.13 mph82%30.01 "HgN/A
9:20 AM55 °FBroken clouds.10 mph88%30.01 "HgN/A
8:50 AM55 °FBroken clouds.10 mph88%30.01 "HgN/A
8:20 AM55 °FBroken clouds.13 mph82%30.01 "HgN/A
7:50 AM57 °FBroken clouds.10 mph82%30.01 "HgN/A
7:20 AM55 °FBroken clouds.7 mph88%30.01 "HgN/A
6:50 AM55 °FPartly cloudy.9 mph82%30.01 "HgN/A
6:20 AM55 °FPartly cloudy.12 mph82%29.98 "HgN/A
5:50 AM55 °FPartly cloudy.9 mph82%29.98 "HgN/A
4:50 AM55 °FPartly cloudy.13 mph82%29.98 "HgN/A
4:20 AM55 °FPartly cloudy.12 mph77%29.98 "HgN/A
3:50 AM55 °FPartly cloudy.12 mph82%29.98 "HgN/A
3:20 AM55 °FPartly cloudy.12 mph77%29.98 "HgN/A
2:50 AM55 °FPartly cloudy.13 mph82%29.98 "HgN/A
2:20 AM55 °FPartly cloudy.14 mph82%29.98 "HgN/A
1:50 AM55 °FPartly cloudy.14 mph82%29.98 "HgN/A
1:20 AM55 °FPartly cloudy.14 mph82%29.98 "HgN/A
12:50 AM55 °FPartly cloudy.10 mph82%29.98 "HgN/A
11:20 PM
Thu, Feb 11
55 °FPartly cloudy.10 mph82%29.98 "HgN/A
10:50 PM57 °FPartly cloudy.12 mph77%29.98 "HgN/A
10:20 PM55 °FPartly cloudy.9 mph82%29.98 "HgN/A
9:50 PM57 °FPassing clouds.10 mph82%29.98 "HgN/A
9:20 PM55 °FPassing clouds.12 mph88%29.98 "HgN/A
8:50 PM59 °FPassing clouds.13 mph77%29.98 "HgN/A
8:20 PM57 °FPassing clouds.10 mph88%29.98 "HgN/A
7:50 PM57 °FPassing clouds.12 mph88%29.95 "HgN/A
7:20 PM57 °FPassing clouds.12 mph88%29.95 "HgN/A
6:50 PM57 °FPassing clouds.10 mph88%29.95 "HgN/A
6:20 PM57 °FPassing clouds.12 mph88%29.92 "HgN/A
5:50 PM57 °FPartly cloudy.8 mph88%29.95 "HgN/A
5:20 PM61 °FBroken clouds.9 mph77%29.92 "HgN/A
4:50 PM63 °FBroken clouds.9 mph77%29.92 "HgN/A
4:20 PM63 °FBroken clouds.9 mph77%29.92 "HgN/A
3:50 PM63 °FBroken clouds.10 mph77%29.92 "HgN/A
3:20 PM63 °FBroken clouds.10 mph77%29.89 "HgN/A
2:50 PM63 °FBroken clouds.9 mph73%29.89 "HgN/A
2:20 PM63 °FBroken clouds.10 mph77%29.89 "HgN/A
1:50 PM63 °FBroken clouds.12 mph73%29.89 "HgN/A
1:20 PM63 °FBroken clouds.9 mph77%29.89 "HgN/A
12:50 PM63 °FBroken clouds.14 mph77%29.89 "HgN/A
12:20 PM63 °FBroken clouds.10 mph83%29.89 "HgN/A
Weather by CustomWeather, © 2016

See weather overviewHow to use our weather pages